Artesia, NM

1:03 AM MDT on May 01, 2017 (GMT -0600)
Artesia Municipal

Weather History for KATS - November, 2012

Change the Weather History Date:

Thursday, November 22, 2012

  Actual Average Record
Temperature  
Mean Temperature 58 °F -  
Max Temperature 75 °F 62 °F 82 °F (1998)
Min Temperature 42 °F 27 °F 13 °F (1975)
Degree Days  
Heating Degree Days 6    
Growing Degree Days 8 (Base 50)    
Moisture  
Dew Point 35 °F    
Average Humidity 47    
Maximum Humidity 87    
Minimum Humidity 20    
Precipitation  
Precipitation 0.00 in - - ()
Sea Level Pressure  
Sea Level Pressure 30.09 in    
Wind  
Wind Speed 5 mph (NNW)    
Max Wind Speed 14 mph    
Max Gust Speed -    
Visibility 10 miles    
Events      
Averages and records for this station are not official NWS values.
T = Trace of Precipitation, MM = Missing Value Source: NWS Daily Summary

Daily Weather History Graph

Daily Weather History Graph

Search for Another Location

Airport or City:

Trip Planner

Search our weather history database for the weather conditions in past years. The results will help you decide how hot, cold, wet, or windy it might be!

Date:

Astronomy

Nov. 22, 2012 Rise Set
Actual Time 6:35 AM MST 4:53 PM MST
Civil Twilight 6:08 AM MST 5:19 PM MST
Nautical Twilight 5:38 AM MST 5:49 PM MST
Astronomical Twilight 5:08 AM MST 6:19 PM MST
Moon 1:25 PM MST (11/22) 1:13 AM MST (11/22)
Length of Visible Light 11h 11m
Length of Day
10h 18m
Waxing Gibbous, 72% of the Moon is Illuminated
Nov 22
Waxing Gibbous
Nov 28
Full
Dec 6
Last Quarter
Dec 13
New
Dec 19
First Quarter

Hourly Weather History & Observations

Time (MST) Temp. Windchill Dew Point Humidity Pressure Visibility Wind Dir Wind Speed Gust Speed Precip Events Conditions
12:15 AM 53.6 °F - 41.0 °F 62% 30.06 in 10.0 mi South 5.8 mph - N/A   Clear
12:35 AM 51.8 °F - 41.0 °F 67% 30.06 in 10.0 mi WNW 4.6 mph - N/A   Clear
12:55 AM 50.0 °F - 41.0 °F 71% 30.06 in 10.0 mi WNW 4.6 mph - N/A   Clear
1:15 AM 50.0 °F - 41.0 °F 71% 30.05 in 10.0 mi WNW 4.6 mph - N/A   Clear
1:35 AM 48.2 °F - 41.0 °F 76% 30.05 in 10.0 mi Calm Calm - N/A   Clear
1:55 AM 48.2 °F - 41.0 °F 76% 30.04 in 10.0 mi Calm Calm - N/A   Clear
2:15 AM 48.2 °F - 41.0 °F 76% 30.04 in 10.0 mi Calm Calm - N/A   Clear
2:35 AM 48.2 °F - 41.0 °F 76% 30.04 in 10.0 mi Calm Calm - N/A   Clear
2:55 AM 46.4 °F - 39.2 °F 76% 30.04 in 10.0 mi Calm Calm - N/A   Clear
3:15 AM 48.2 °F - 41.0 °F 76% 30.04 in 10.0 mi WSW 4.6 mph - N/A   Clear
3:35 AM 51.8 °F - 41.0 °F 67% 30.03 in 10.0 mi Calm Calm - N/A   Clear
3:55 AM 48.2 °F - 39.2 °F 71% 30.03 in 10.0 mi SW 3.5 mph - N/A   Clear
4:15 AM 48.2 °F - 41.0 °F 76% 30.03 in 10.0 mi SW 4.6 mph - N/A   Clear
4:35 AM 48.2 °F - 41.0 °F 76% 30.03 in 10.0 mi ESE 6.9 mph - N/A   Clear
4:55 AM 50.0 °F - 41.0 °F 71% 30.03 in 10.0 mi SSE 6.9 mph - N/A   Clear
5:15 AM 46.4 °F 45.2 °F 39.2 °F 76% 30.04 in 10.0 mi East 3.5 mph - N/A   Clear
5:35 AM 46.4 °F - 41.0 °F 81% 30.05 in 10.0 mi Calm Calm - N/A   Clear
5:55 AM 46.4 °F - 39.2 °F 76% 30.05 in 10.0 mi Calm Calm - N/A   Clear
6:15 AM 46.4 °F 45.2 °F 39.2 °F 76% 30.06 in 10.0 mi SSW 3.5 mph - N/A   Clear
6:35 AM 42.8 °F 39.3 °F 39.2 °F 87% 30.07 in 10.0 mi SSW 5.8 mph - N/A   Clear
6:55 AM 44.6 °F 41.4 °F 39.2 °F 81% 30.08 in 10.0 mi SW 5.8 mph - N/A   Clear
7:15 AM 46.4 °F 44.3 °F 41.0 °F 81% 30.08 in 10.0 mi SW 4.6 mph - N/A   Clear
7:35 AM 50.0 °F - 42.8 °F 76% 30.08 in 10.0 mi SW 10.4 mph - N/A   Clear
7:55 AM 53.6 °F - 44.6 °F 72% 30.09 in 10.0 mi SW 10.4 mph - N/A   Clear
8:15 AM 57.2 °F - 44.6 °F 63% 30.09 in 10.0 mi WSW 9.2 mph - N/A   Clear
8:35 AM 59.0 °F - 44.6 °F 59% 30.10 in 10.0 mi West 12.7 mph - N/A   Clear
8:55 AM 62.6 °F - 44.6 °F 52% 30.10 in 10.0 mi West 10.4 mph - N/A   Clear
9:15 AM 64.4 °F - 44.6 °F 49% 30.11 in 10.0 mi NNW 4.6 mph - N/A   Clear
9:35 AM 64.4 °F - 44.6 °F 49% 30.11 in 10.0 mi ENE 4.6 mph - N/A   Clear
9:55 AM 64.4 °F - 44.6 °F 49% 30.11 in 10.0 mi Calm Calm - N/A   Clear
10:15 AM 66.2 °F - 44.6 °F 46% 30.11 in 10.0 mi Calm Calm - N/A   Clear
10:35 AM 68.0 °F - 42.8 °F 40% 30.10 in 10.0 mi Calm Calm - N/A   Clear
10:55 AM 69.8 °F - 39.2 °F 33% 30.09 in 10.0 mi Calm Calm - N/A   Clear
11:15 AM 71.6 °F - 37.4 °F 29% 30.08 in 10.0 mi Calm Calm - N/A   Clear
11:35 AM 71.6 °F - 37.4 °F 29% 30.07 in 10.0 mi East 4.6 mph - N/A   Clear
11:55 AM 73.4 °F - 39.2 °F 29% 30.06 in 10.0 mi Calm Calm - N/A   Clear
12:15 PM 73.4 °F - 37.4 °F 27% 30.06 in 10.0 mi SE 3.5 mph - N/A   Clear
12:35 PM 73.4 °F - 37.4 °F 27% 30.05 in 10.0 mi ESE 8.1 mph - N/A   Clear
12:55 PM 73.4 °F - 37.4 °F 27% 30.04 in 10.0 mi ESE 6.9 mph - N/A   Clear
1:15 PM 75.2 °F - 35.6 °F 24% 30.03 in 10.0 mi NE 6.9 mph - N/A   Clear
1:35 PM 75.2 °F - 35.6 °F 24% 30.03 in 10.0 mi ENE 5.8 mph - N/A   Clear
1:55 PM 75.2 °F - 35.6 °F 24% 30.03 in 10.0 mi NE 3.5 mph - N/A   Clear
2:15 PM 75.2 °F - 33.8 °F 22% 30.03 in 10.0 mi ENE 4.6 mph - N/A   Clear
2:35 PM 75.2 °F - 33.8 °F 22% 30.03 in 10.0 mi ENE 6.9 mph - N/A   Clear
2:55 PM 75.2 °F - 32.0 °F 21% 30.04 in 10.0 mi NE 5.8 mph - N/A   Clear
3:15 PM 75.2 °F - 32.0 °F 21% 30.04 in 10.0 mi East 4.6 mph - N/A   Clear
3:35 PM 75.2 °F - 32.0 °F 21% 30.04 in 10.0 mi NE 3.5 mph - N/A   Clear
3:55 PM 75.2 °F - 32.0 °F 21% 30.04 in 10.0 mi ESE 3.5 mph - N/A   Clear
4:15 PM 75.2 °F - 33.8 °F 22% 30.05 in 10.0 mi ENE 6.9 mph - N/A   Clear
4:35 PM 73.4 °F - 32.0 °F 22% 30.05 in 10.0 mi ENE 4.6 mph - N/A   Clear
4:55 PM 69.8 °F - 32.0 °F 25% 30.06 in 10.0 mi East 4.6 mph - N/A   Clear
5:35 PM 64.4 °F - 32.0 °F 30% 30.07 in 10.0 mi Calm Calm - N/A   Clear
5:55 PM 64.4 °F - 32.0 °F 30% 30.08 in 10.0 mi Calm Calm - N/A   Clear
6:15 PM 64.4 °F - 32.0 °F 30% 30.09 in 10.0 mi Calm Calm - N/A   Clear
6:55 PM 59.0 °F - 32.0 °F 36% 30.11 in 10.0 mi West 3.5 mph - N/A   Clear
7:15 PM 55.4 °F - 32.0 °F 41% 30.12 in 10.0 mi WNW 10.4 mph - N/A   Clear
7:35 PM 55.4 °F - 32.0 °F 41% 30.13 in 10.0 mi WNW 12.7 mph - N/A   Clear
7:55 PM 55.4 °F - 32.0 °F 41% 30.14 in 10.0 mi WNW 6.9 mph - N/A   Clear
8:15 PM 55.4 °F - 28.4 °F 36% 30.15 in 10.0 mi WNW 9.2 mph - N/A   Clear
8:35 PM 51.8 °F - 24.8 °F 35% 30.16 in 10.0 mi WNW 9.2 mph - N/A   Clear
8:55 PM 55.4 °F - 17.6 °F 23% 30.17 in 10.0 mi WNW 10.4 mph - N/A   Clear
9:15 PM 57.2 °F - 15.8 °F 20% 30.17 in 10.0 mi NW 11.5 mph - N/A   Clear
9:35 PM 57.2 °F - 17.6 °F 21% 30.18 in 10.0 mi NW 12.7 mph - N/A   Clear
9:55 PM 53.6 °F - 17.6 °F 24% 30.19 in 10.0 mi NW 9.2 mph - N/A   Clear
10:15 PM 48.2 °F - 23.0 °F 37% 30.21 in 10.0 mi NNE 11.5 mph - N/A   Clear
10:35 PM 46.4 °F 41.1 °F 24.8 °F 43% 30.23 in 10.0 mi NNE 11.5 mph - N/A   Clear
10:55 PM 48.2 °F - 23.0 °F 37% 30.25 in 10.0 mi NNE 10.4 mph - N/A   Clear
11:15 PM 48.2 °F - 23.0 °F 37% 30.27 in 10.0 mi NNW 11.5 mph - N/A   Clear
11:35 PM 50.0 °F - 23.0 °F 35% 30.29 in 10.0 mi NNW 11.5 mph - N/A   Clear
11:55 PM 50.0 °F - 24.8 °F 37% 30.30 in 10.0 mi NNW 13.8 mph - N/A   Clear